FW5225 Weather Reports


time (UTC)temp
F
wind
direction
speed
knots
gust
knots
rain 1hr
in
rain 24hr
in
rain mn
in
humidity
%
barometer
mb
20260904060509 91 193 0.9 4.3 0.00 0.00 0.00 41 1006.1
20260904060014 91 244 1.7 6.1 0.00 0.00 0.00 41 1006.1
20260904055507 91 191 1.7 7.0 0.00 0.00 0.00 41 1006.0
20260904055007 91 267 0.9 7.8 0.00 0.00 0.00 41 1005.9
20260904054510 91 216 1.7 5.2 0.00 0.00 0.00 41 1005.9
20260904054009 91 266 0.9 5.2 0.00 0.00 0.00 40 1005.9
20260904053510 92 283 0.9 5.2 0.00 0.00 0.00 40 1005.9
20260904053013 92 277 2.6 7.8 0.00 0.00 0.00 40 1005.9
20260904052507 92 201 1.7 7.8 0.00 0.00 0.00 39 1005.8
20260904052009 92 244 2.6 7.8 0.00 0.00 0.00 39 1005.8
20260904051511 92 259 2.6 7.0 0.00 0.00 0.00 39 1005.8
20260904051005 92 223 2.6 5.2 0.00 0.00 0.00 39 1005.8
20260904050504 92 267 0.9 3.5 0.00 0.00 0.00 39 1005.8
20260904050017 92 281 1.7 6.1 0.00 0.00 0.00 39 1005.8
20260904045505 92 271 2.6 6.1 0.00 0.00 0.00 38 1005.8
20260904045005 93 247 1.7 6.1 0.00 0.00 0.00 38 1005.8
20260904044512 93 215 0.9 5.2 0.00 0.00 0.00 38 1005.7
20260904044003 93 300 0.9 5.2 0.00 0.00 0.00 39 1005.8
20260904043503 93 267 1.7 6.1 0.00 0.00 0.00 38 1005.7
20260904043009 93 279 1.7 6.1 0.00 0.00 0.00 38 1005.7
20260904042503 93 205 0.9 5.2 0.00 0.00 0.00 39 1005.6
20260904042002 93 242 1.7 5.2 0.00 0.00 0.00 39 1005.6
20260904041505 93 234 1.7 4.3 0.00 0.00 0.00 39 1005.6
20260904041003 93 219 0.9 9.6 0.00 0.00 0.00 39 1005.5
20260904040504 94 223 1.7 9.6 0.00 0.00 0.00 39 1005.5
20260904040007 94 247 2.6 11.3 0.00 0.00 0.00 39 1005.4
20260904035503 94 252 3.5 11.3 0.00 0.00 0.00 39 1005.3
20260904035003 94 188 1.7 7.8 0.00 0.00 0.00 38 1005.2
20260904034503 94 230 1.7 6.1 0.00 0.00 0.00 38 1005.2
20260904034002 94 261 0.9 6.1 0.00 0.00 0.00 38 1005.1
20260904033505 94 238 0.9 6.1 0.00 0.00 0.00 38 1005.1
20260904033010 94 173 1.7 6.1 0.00 0.00 0.00 37 1005.0
20260904032502 94 218 1.7 7.8 0.00 0.00 0.00 37 1004.9
20260904032001 94 252 0.9 8.7 0.00 0.00 0.00 37 1004.9
20260904031501 94 273 2.6 8.7 0.00 0.00 0.00 37 1004.8
20260904031001 95 248 1.7 7.0 0.00 0.00 0.00 36 1004.7
20260904030503 95 298 0.9 7.0 0.00 0.00 0.00 36 1004.6
20260904030001 95 254 1.7 6.1 0.00 0.00 0.00 35 1004.6
20260904025501 95 259 1.7 5.2 0.00 0.00 0.00 35 1004.6
20260904025002 95 267 2.6 5.2 0.00 0.00 0.00 34 1004.5
20260904024501 95 247 1.7 5.2 0.00 0.00 0.00 34 1004.5
20260904024000 95 219 0.9 4.3 0.00 0.00 0.00 34 1004.4
20260904023501 95 225 0.9 5.2 0.00 0.00 0.00 34 1004.3
20260904023106 95 267 1.7 5.2 0.00 0.00 0.00 34 1004.4
20260904022600 95 277 2.6 6.1 0.00 0.00 0.00 34 1004.3
20260904022100 96 277 2.6 6.1 0.00 0.00 0.00 34 1004.3
20260904021604 96 272 0.9 5.2 0.00 0.00 0.00 33 1004.2
20260904021059 96 194 1.7 5.2 0.00 0.00 0.00 33 1004.2
20260904020600 96 175 1.7 5.2 0.00 0.00 0.00 32 1004.1
20260904020104 96 247 1.7 5.2 0.00 0.00 0.00 33 1004.1
20260904015559 96 262 1.7 8.7 0.00 0.00 0.00 32 1004.1
20260904015058 97 265 2.6 8.7 0.00 0.00 0.00 32 1004.1
20260904014619 97 288 2.6 7.0 0.00 0.00 0.00 32 1004.1
20260904014101 97 243 1.7 9.6 0.00 0.00 0.00 31 1004.0
20260904013558 97 214 2.6 9.6 0.00 0.00 0.00 30 1004.0
20260904013119 97 250 2.6 7.8 0.00 0.00 0.00 30 1004.0
20260904012557 98 205 2.6 9.6 0.00 0.00 0.00 29 1004.0
20260904012057 98 263 3.5 9.6 0.00 0.00 0.00 30 1004.0
20260904011558 98 210 1.7 7.8 0.00 0.00 0.00 30 1004.0
20260904011057 99 269 2.6 7.8 0.00 0.00 0.00 28 1004.0
20260904010557 99 261 2.6 5.2 0.00 0.00 0.00 28 1004.0
20260904010113 99 219 1.7 7.0 0.00 0.00 0.00 27 1004.0
20260904010027 99 288 0.9 7.0 0.00 0.00 0.00 27 1004.0
20260904005556 99 216 2.6 7.0 0.00 0.00 0.00 27 1004.0
20260904005058 100 220 1.7 7.0 0.00 0.00 0.00 26 1004.1
20260904004556 99 254 1.7 6.1 0.00 0.00 0.00 26 1004.0
20260904004055 99 249 2.6 6.1 0.00 0.00 0.00 26 1004.0
20260904003556 100 216 2.6 6.1 0.00 0.00 0.00 26 1004.0
20260904003110 100 211 1.7 6.1 0.00 0.00 0.00 26 1004.0
20260904002555 100 223 1.7 6.1 0.00 0.00 0.00 26 1004.0
20260904002055 100 304 2.6 6.1 0.00 0.00 0.00 26 1004.0
20260904001555 101 229 1.7 7.8 0.00 0.00 0.00 27 1004.0
20260904001055 101 300 5.2 7.8 0.00 0.00 0.00 27 1004.0
20260904000554 101 259 2.6 6.1 0.00 0.00 0.00 27 1004.1
20260904000054 101 269 2.6 6.1 0.00 0.00 0.00 26 1004.2
20260903235553 100 196 2.6 6.1 0.00 0.00 0.00 27 1004.1
20260903235053 100 224 2.6 7.8 0.00 0.00 0.00 27 1004.2
20260903234553 100 257 1.7 7.8 0.00 0.00 0.00 27 1004.2
20260903234054 101 179 1.7 7.8 0.00 0.00 0.00 27 1004.2
20260903233551 101 269 2.6 7.0 0.00 0.00 0.00 27 1004.3
20260903233058 101 258 2.6 6.1 0.00 0.00 0.00 27 1004.3
20260903232550 102 217 1.7 7.0 0.00 0.00 0.00 27 1004.3
20260903232050 102 286 2.6 7.0 0.00 0.00 0.00 26 1004.4
20260903231550 103 253 1.7 7.0 0.00 0.00 0.00 26 1004.4
20260903231049 104 277 3.5 7.0 0.00 0.00 0.00 26 1004.5
20260903230549 104 231 0.9 6.1 0.00 0.00 0.00 26 1004.4
20260903230050 103 292 0.0 6.1 0.00 0.00 0.00 27 1004.6
20260903225548 103 202 0.0 6.1 0.00 0.00 0.00 27 1004.6
20260903225047 103 178 1.7 6.1 0.00 0.00 0.00 26 1004.6
20260903224546 103 123 0.9 7.8 0.00 0.00 0.00 27 1004.7
20260903224046 103 173 1.7 7.8 0.00 0.00 0.00 27 1004.8
20260903223545 103 119 1.7 7.0 0.00 0.00 0.00 27 1004.8
20260903223055 103 207 0.9 4.3 0.00 0.00 0.00 28 1004.8
20260903222544 102 178 1.7 4.3 0.00 0.00 0.00 27 1004.9
20260903222041 101 215 0.9 4.3 0.00 0.00 0.00 28 1005.0
20260903221542 100 315 0.0 6.1 0.00 0.00 0.00 30 1005.2
20260903221042 100 310 1.7 6.1 0.00 0.00 0.00 30 1005.2
20260903220540 100 303 1.7 5.2 0.00 0.00 0.00 30 1005.4
20260903220039 101 224 1.7 5.2 0.00 0.00 0.00 29 1005.4
20260903215542 101 190 0.9 5.2 0.00 0.00 0.00 29 1005.5
20260903215037 102 28 0.9 5.2 0.00 0.00 0.00 28 1005.7
20260903214541 102 277 1.7 4.3 0.00 0.00 0.00 28 1005.6
20260903214037 102 278 1.7 4.3 0.00 0.00 0.00 28 1005.8
20260903213536 102 80 0.9 7.0 0.00 0.00 0.00 28 1005.8
20260903213042 102 178 1.7 7.0 0.00 0.00 0.00 28 1005.9
20260903212534 102 180 0.9 5.2 0.00 0.00 0.00 28 1006.1
20260903212034 102 200 0.9 9.6 0.00 0.00 0.00 29 1006.1
20260903211539 102 224 2.6 9.6 0.00 0.00 0.00 28 1006.2
20260903211033 102 97 2.6 5.2 0.00 0.00 0.00 28 1006.2
20260903210532 102 209 1.7 5.2 0.00 0.00 0.00 29 1006.3
20260903210031 101 234 1.7 6.1 0.00 0.00 0.00 29 1006.4
20260903205532 100 192 1.7 8.7 0.00 0.00 0.00 30 1006.5
20260903205028 101 88 2.6 8.7 0.00 0.00 0.00 29 1006.6
20260903204528 100 135 0.9 7.8 0.00 0.00 0.00 30 1006.6
20260903204031 100 213 1.7 7.8 0.00 0.00 0.00 30 1006.7
20260903203527 100 143 1.7 5.2 0.00 0.00 0.00 31 1006.8
20260903203031 100 246 1.7 5.2 0.00 0.00 0.00 31 1006.8
20260903202525 100 115 0.9 5.2 0.00 0.00 0.00 30 1006.9
20260903202025 101 210 1.7 3.5 0.00 0.00 0.00 30 1007.1
20260903201525 101 199 0.0 7.0 0.00 0.00 0.00 30 1007.1
20260903201024 100 175 1.7 7.0 0.00 0.00 0.00 30 1007.2
20260903200523 100 207 0.9 3.5 0.00 0.00 0.00 31 1007.2
20260903200021 99 259 0.9 4.3 0.00 0.00 0.00 32 1007.3
20260903195521 99 174 1.7 5.2 0.00 0.00 0.00 32 1007.4
20260903195020 98 228 0.0 5.2 0.00 0.00 0.00 33 1007.5
20260903194519 99 119 1.7 3.5 0.00 0.00 0.00 31 1007.5
20260903194017 99 155 0.9 3.5 0.00 0.00 0.00 32 1007.6
20260903193516 98 148 0.0 7.0 0.00 0.00 0.00 34 1007.6
20260903193016 97 154 1.7 7.0 0.00 0.00 0.00 33 1007.7
20260903192514 97 136 1.7 8.7 0.00 0.00 0.00 33 1007.8
20260903192012 98 139 3.5 8.7 0.00 0.00 0.00 32 1007.9
20260903191523 98 192 1.7 7.0 0.00 0.00 0.00 33 1008.1
20260903191012 98 215 0.0 7.0 0.00 0.00 0.00 33 1008.1
20260903190511 98 157 2.6 6.1 0.00 0.00 0.00 32 1008.2
20260903190012 98 171 1.7 6.1 0.00 0.00 0.00 33 1008.3
20260903185509 97 120 0.9 4.3 0.00 0.00 0.00 33 1008.4
20260903185009 97 104 0.9 4.3 0.00 0.00 0.00 33 1008.5
20260903184509 97 205 0.0 5.2 0.00 0.00 0.00 35 1008.6
20260903184009 97 279 1.7 5.2 0.00 0.00 0.00 34 1008.6
20260903183507 97 221 0.9 8.7 0.00 0.00 0.00 35 1008.7
20260903183007 97 169 1.7 8.7 0.00 0.00 0.00 35 1008.8
20260903182505 97 158 1.7 5.2 0.00 0.00 0.00 34 1008.8
20260903182005 96 112 1.7 5.2 0.00 0.00 0.00 33 1008.9
20260903181503 96 85 0.9 4.3 0.00 0.00 0.00 34 1008.9
20260903181004 96 271 0.9 4.3 0.00 0.00 0.00 35 1009.0
20260903180501 96 186 0.9 5.2 0.00 0.00 0.00 37 1009.2
20260903180100 96 200 0.9 5.2 0.00 0.00 0.00 37 1009.2
20260903175558 96 201 1.7 4.3 0.00 0.00 0.00 38 1009.3
20260903175057 96 192 1.7 5.2 0.00 0.00 0.00 36 1009.4
20260903174556 95 169 0.9 5.2 0.00 0.00 0.00 38 1009.3
20260903174055 95 225 0.9 3.5 0.00 0.00 0.00 38 1009.4
20260903173553 94 218 0.9 2.6 0.00 0.00 0.00 39 1009.4
20260903173055 94 192 0.0 4.3 0.00 0.00 0.00 41 1009.5
20260903172551 94 274 0.9 4.3 0.00 0.00 0.00 41 1009.5
20260903172051 94 70 0.0 4.3 0.00 0.00 0.00 42 1009.5
20260903171559 94 172 0.9 4.3 0.00 0.00 0.00 42 1009.4
20260903171048 93 206 1.7 4.3 0.00 0.00 0.00 42 1009.4
20260903170548 93 280 0.9 4.3 0.00 0.00 0.00 44 1009.4
20260903170046 92 222 0.0 3.5 0.00 0.00 0.00 44 1009.4
20260903165545 92 159 0.9 4.3 0.00 0.00 0.00 44 1009.5
20260903165043 92 220 0.9 6.1 0.00 0.00 0.00 44 1009.6
20260903164542 92 159 1.7 6.1 0.00 0.00 0.00 45 1009.5
20260903164041 92 163 0.9 6.1 0.00 0.00 0.00 45 1009.5
20260903163539 91 189 0.9 6.1 0.00 0.00 0.00 46 1009.6
20260903163041 91 156 0.0 3.5 0.00 0.00 0.00 47 1009.6
20260903162538 91 248 0.9 4.3 0.00 0.00 0.00 48 1009.6
20260903162035 90 187 0.9 3.5 0.00 0.00 0.00 48 1009.6
20260903161535 90 204 1.7 3.5 0.00 0.00 0.00 49 1009.6
20260903161034 90 138 0.9 3.5 0.00 0.00 0.00 50 1009.6
20260903160532 90 164 0.0 3.5 0.00 0.00 0.00 50 1009.7
20260903160031 90 151 0.9 3.5 0.00 0.00 0.00 51 1009.7
20260903155531 89 184 0.0 3.5 0.00 0.00 0.00 51 1009.6
20260903155028 89 155 0.9 3.5 0.00 0.00 0.00 51 1009.6
20260903154527 89 186 0.9 3.5 0.00 0.00 0.00 51 1009.6
20260903154025 88 132 0.0 4.3 0.00 0.00 0.00 52 1009.6
20260903153524 88 112 0.9 3.5 0.00 0.00 0.00 53 1009.7
20260903153023 88 181 0.9 3.5 0.00 0.00 0.00 53 1009.7
20260903152522 87 260 0.0 2.6 0.00 0.00 0.00 54 1009.7
20260903152020 87 188 0.0 2.6 0.00 0.00 0.00 55 1009.7
20260903151521 87 181 0.0 2.6 0.00 0.00 0.00 56 1009.6
20260903151018 86 142 0.0 1.7 0.00 0.00 0.00 56 1009.7
20260903150516 86 279 0.0 1.7 0.00 0.00 0.00 57 1009.7
20260903150016 86 208 0.0 1.7 0.00 0.00 0.00 57 1009.7
20260903145514 85 178 0.0 1.7 0.00 0.00 0.00 58 1009.7
20260903145013 85 177 0.0 1.7 0.00 0.00 0.00 59 1009.7
20260903144512 84 169 0.0 1.7 0.00 0.00 0.00 59 1009.7
20260903144010 84 195 0.0 2.6 0.00 0.00 0.00 60 1009.7
20260903143508 84 242 0.0 2.6 0.00 0.00 0.00 60 1009.7
20260903143008 84 228 0.0 2.6 0.00 0.00 0.00 59 1009.6
20260903142507 84 200 0.0 3.5 0.00 0.00 0.00 59 1009.6
20260903142005 84 267 0.9 3.5 0.00 0.00 0.00 58 1009.6
20260903141510 84 267 0.0 3.5 0.00 0.00 0.00 58 1009.4
20260903141004 84 309 0.0 3.5 0.00 0.00 0.00 58 1009.3
20260903140503 84 280 0.0 3.5 0.00 0.00 0.00 58 1009.3
20260903140009 84 267 0.0 1.7 0.00 0.00 0.00 56 1009.3
20260903135503 84 213 0.0 1.7 0.00 0.00 0.00 57 1009.2
20260903135002 84 233 0.0 4.3 0.00 0.00 0.00 56 1009.1
20260903134610 84 281 0.0 4.3 0.00 0.00 0.00 56 1009.0
20260903134058 83 292 0.0 3.5 0.00 0.00 0.00 56 1008.9
20260903133558 83 233 0.0 2.6 0.00 0.00 0.00 55 1008.8
20260903133108 83 263 0.0 1.7 0.00 0.00 0.00 55 1008.8
20260903132558 83 272 0.0 4.3 0.00 0.00 0.00 55 1008.7
20260903132054 83 300 0.9 4.3 0.00 0.00 0.00 54 1008.7
20260903131553 83 201 0.9 4.3 0.00 0.00 0.00 53 1008.6
20260903131056 83 288 0.0 4.3 0.00 0.00 0.00 52 1008.5
20260903130552 83 247 0.0 1.7 0.00 0.00 0.00 52 1008.5
20260903130122 83 265 0.0 1.7 0.00 0.00 0.00 52 1008.4
20260903125552 83 262 0.0 2.6 0.00 0.00 0.00 52 1008.3
20260903125051 83 282 0.0 4.3 0.00 0.00 0.00 53 1008.3
20260903124558 83 280 0.9 4.3 0.00 0.00 0.00 53 1008.2
20260903124050 83 304 0.9 6.1 0.00 0.00 0.00 53 1008.3
20260903123554 83 268 0.9 6.1 0.00 0.00 0.00 54 1008.3
20260903123051 83 298 0.9 7.0 0.00 0.00 0.00 54 1008.2
20260903122549 83 273 2.6 7.0 0.00 0.00 0.00 54 1008.1
20260903122049 83 276 1.7 5.2 0.00 0.00 0.00 54 1008.1
20260903121549 83 269 1.7 5.2 0.00 0.00 0.00 54 1008.1
20260903121048 83 263 2.6 7.0 0.00 0.00 0.00 55 1008.1
20260903120547 84 284 1.7 7.8 0.00 0.00 0.00 53 1008.1
20260903120050 84 259 0.9 7.8 0.00 0.00 0.00 52 1008.1
20260903115549 84 302 2.6 7.8 0.00 0.00 0.00 50 1008.1
20260903115047 84 269 1.7 5.2 0.00 0.00 0.00 48 1008.1
20260903114547 84 311 1.7 7.8 0.00 0.00 0.00 50 1008.1
20260903114048 84 248 2.6 7.8 0.00 0.00 0.00 50 1008.1
20260903113546 84 288 2.6 6.1 0.00 0.00 0.00 53 1008.1
20260903113046 84 280 1.7 6.1 0.00 0.00 0.00 54 1008.1
20260903112546 84 302 0.0 4.3 0.00 0.00 0.00 54 1008.1
20260903112044 84 269 1.7 5.2 0.00 0.00 0.00 54 1008.1
20260903111544 84 259 1.7 5.2 0.00 0.00 0.00 54 1008.2
20260903111044 84 293 1.7 5.2 0.00 0.00 0.00 54 1008.1
20260903110547 84 268 0.9 5.2 0.00 0.00 0.00 54 1008.1
20260903110045 84 259 0.0 3.5 0.00 0.00 0.00 53 1008.1
20260903105545 85 311 0.0 3.5 0.00 0.00 0.00 53 1008.1
20260903105042 85 204 0.0 3.5 0.00 0.00 0.00 52 1008.1
20260903104541 85 225 0.0 2.6 0.00 0.00 0.00 51 1008.2
20260903104039 85 218 0.0 3.5 0.00 0.00 0.00 50 1008.2
20260903103539 85 232 0.0 3.5 0.00 0.00 0.00 49 1008.2
20260903103039 85 217 0.0 3.5 0.00 0.00 0.00 47 1008.3
20260903102537 86 221 0.0 2.6 0.00 0.00 0.00 46 1008.3
20260903102036 86 217 0.0 3.5 0.00 0.00 0.00 45 1008.3
20260903101536 86 194 0.9 4.3 0.00 0.00 0.00 44 1008.3
20260903101035 86 232 0.9 3.5 0.00 0.00 0.00 42 1008.3
20260903100536 86 216 0.0 3.5 0.00 0.00 0.00 41 1008.3
20260903100038 86 261 0.9 4.3 0.00 0.00 0.00 41 1008.3
20260903095533 86 194 0.9 4.3 0.00 0.00 0.00 40 1008.3
20260903095035 87 243 0.9 4.3 0.00 0.00 0.00 40 1008.3
20260903094539 87 275 0.9 4.3 0.00 0.00 0.00 40 1008.3
20260903094032 87 192 0.9 4.3 0.00 0.00 0.00 39 1008.3
20260903093532 87 290 0.9 4.3 0.00 0.00 0.00 40 1008.3
20260903093033 87 147 0.9 4.3 0.00 0.00 0.00 40 1008.3
20260903092532 88 275 0.9 7.0 0.00 0.00 0.00 40 1008.3
20260903092032 88 246 2.6 7.0 0.00 0.00 0.00 41 1008.3
20260903091534 88 277 1.7 9.6 0.00 0.00 0.00 40 1008.3
20260903091031 88 257 3.5 9.6 0.00 0.00 0.00 40 1008.3
20260903090532 88 307 3.5 7.8 0.00 0.00 0.00 40 1008.3
20260903090037 87 273 1.7 6.1 0.00 0.00 0.00 38 1008.2
20260903085529 87 267 1.7 3.5 0.00 0.00 0.00 36 1008.3
20260903085028 87 210 0.0 4.3 0.00 0.00 0.00 33 1008.4
20260903084531 87 278 0.0 4.3 0.00 0.00 0.00 30 1008.3
20260903084027 87 254 0.0 1.7 0.00 0.00 0.00 27 1008.3
20260903083529 87 257 0.0 2.6 0.00 0.00 0.00 26 1008.3
20260903083029 87 222 0.0 3.5 0.00 0.00 0.00 25 1008.3
20260903082526 87 240 0.9 3.5 0.00 0.00 0.00 25 1008.3
20260903082025 87 195 0.0 1.7 0.00 0.00 0.00 25 1008.3
20260903081525 87 240 0.0 1.7 0.00 0.00 0.00 26 1008.3
20260903081027 87 240 0.0 1.7 0.00 0.00 0.00 25 1008.3
20260903080523 88 215 0.0 1.7 0.00 0.00 0.00 26 1008.3
20260903080022 88 183 0.0 1.7 0.00 0.00 0.00 25 1008.3
20260903075522 88 185 0.0 1.7 0.00 0.00 0.00 25 1008.3
20260903075019 89 191 0.0 1.7 0.00 0.00 0.00 25 1008.3
20260903074520 89 150 0.0 1.7 0.00 0.00 0.00 24 1008.3
20260903074018 89 250 0.0 1.7 0.00 0.00 0.00 23 1008.1
20260903073517 90 217 0.0 1.7 0.00 0.00 0.00 23 1008.0
20260903073019 90 272 0.0 2.6 0.00 0.00 0.00 23 1008.0
20260903072515 90 271 0.0 2.6 0.00 0.00 0.00 23 1008.0
20260903072015 90 261 0.0 1.7 0.00 0.00 0.00 24 1007.9
20260903071514 90 259 0.9 1.7 0.00 0.00 0.00 23 1007.9
20260903071013 90 237 0.0 1.7 0.00 0.00 0.00 23 1007.9
20260903070512 91 217 0.0 1.7 0.00 0.00 0.00 23 1008.0
20260903070011 91 217 0.0 1.7 0.00 0.00 0.00 22 1007.9
20260903065511 91 217 0.0 1.7 0.00 0.00 0.00 22 1007.9
20260903065010 91 217 0.0 2.6 0.00 0.00 0.00 22 1007.9
20260903064510 91 213 0.0 4.3 0.00 0.00 0.00 22 1007.8
20260903064010 91 238 0.9 4.3 0.00 0.00 0.00 23 1007.8
20260903063511 91 247 1.7 4.3 0.00 0.00 0.00 23 1007.8
20260903063013 91 294 0.9 4.3 0.00 0.00 0.00 24 1007.8
20260903062509 91 296 1.7 5.2 0.00 0.00 0.00 23 1007.8
20260903062009 91 300 2.6 5.2 0.00 0.00 0.00 23 1007.8
20260903061510 91 345 3.5 6.1 0.00 0.00 0.00 22 1007.8
20260903061012 91 318 2.6 7.8 0.00 0.00 0.00 22 1007.7